Weather History for Montpelier, VT

Change the Weather History Date:

Wednesday, August 20, 2014

  Actual Average Record
Temperature  
Mean Temperature 63 °F 65 °F  
Max Temperature 79 °F 77 °F 87 °F (1955)
Min Temperature 47 °F 53 °F 39 °F (1953)
Degree Days  
Heating Degree Days 2 2  
Month to date heating degree days 51 36  
Since 1 June heating degree days 194 197  
Since 1 July heating degree days 94 76  
Cooling Degree Days 0 2  
Month to date cooling degree days 20 56  
Year to date cooling degree days 152 224  
Since 1 June cooling degree days 151 214  
Growing Degree Days 13 (Base 50)    
Moisture  
Dew Point 53 °F    
Average Humidity 73    
Maximum Humidity 100    
Minimum Humidity 45    
Precipitation  
Precipitation 0.00 in 0.12 in 1.09 in (2006)
Month to date precipitation 1.82 2.86  
Year to date precipitation 24.12 23.65  
Sea Level Pressure  
Sea Level Pressure 30.06 in    
Wind  
Wind Speed 2 mph (SSE)    
Max Wind Speed 12 mph    
Max Gust Speed 16 mph    
Visibility 6 miles    
Events Fog    
T = Trace of Precipitation, MM = Missing Value Source: NWS Daily Summary

Daily Weather History Graph

Daily Weather History Graph

Search for Another Location

Airport:

Trip Planner

Search our weather history database for the weather conditions in past years. The results will help you decide how hot, cold, wet, or windy it might be!

Date:

Astronomy

Aug. 20, 2014 Rise Set
Actual Time 5:59 AM EDT 7:47 PM EDT
Civil Twilight 5:28 AM EDT 8:17 PM EDT
Nautical Twilight 4:50 AM EDT 8:55 PM EDT
Astronomical Twilight 4:09 AM EDT 9:35 PM EDT
Moon 1:32 AM EDT (8/20) 4:33 PM EDT (8/20)
Length of Visible Light 14h 49m
Length of Day
13h 47m
Waning Crescent, 21% of the Moon is Illuminated
Aug 20
Waning Crescent
Aug 25
New
Sep 2
First Quarter
Sep 8
Full
Sep 15
Last Quarter

Hourly Weather History & Observations

Time (EDT) Temp. Dew Point Humidity Pressure Visibility Wind Dir Wind Speed Gust Speed Precip Events Conditions
12:51 AM 51.1 °F 50.0 °F 96% 30.04 in 10.0 mi Calm Calm - N/A   Clear
1:51 AM 50.0 °F 48.9 °F 96% 30.04 in 10.0 mi Calm Calm - N/A   Clear
2:51 AM 50.0 °F 48.9 °F 96% 30.03 in 7.0 mi Calm Calm - N/A   Clear
2:56 AM 50.0 °F 48.9 °F 96% 30.03 in 1.2 mi East 3.5 mph - N/A   Partly Cloudy
3:03 AM 50.0 °F 48.9 °F 96% 30.03 in 0.2 mi ENE 3.5 mph - N/A Fog Fog
3:51 AM 48.0 °F 48.0 °F 100% 30.04 in 0.5 mi Calm Calm - N/A Fog Fog
4:51 AM 48.9 °F 48.9 °F 100% 30.04 in 0.5 mi Calm Calm - N/A Fog Fog
5:51 AM 48.9 °F 48.0 °F 97% 30.06 in 0.2 mi Calm Calm - N/A Fog Fog
6:51 AM 48.0 °F 48.0 °F 100% 30.06 in 0.8 mi Calm Calm - N/A   Mist
7:01 AM 48.0 °F 48.0 °F 100% 30.06 in 1.2 mi Calm Calm - N/A   Mostly Cloudy
7:03 AM 48.9 °F 48.9 °F 100% 30.06 in 2.0 mi Calm Calm - N/A   Mostly Cloudy
7:07 AM 48.9 °F 48.9 °F 100% 30.06 in 1.2 mi Calm Calm - N/A   Mostly Cloudy
7:14 AM 48.9 °F 48.9 °F 100% 30.06 in 0.2 mi Calm Calm - N/A Fog Fog
7:51 AM 50.0 °F 50.0 °F 100% 30.08 in 0.2 mi Calm Calm - N/A Fog Fog
8:22 AM 51.1 °F 51.1 °F 100% 30.07 in 1.2 mi Calm Calm - N/A   Overcast
8:26 AM 52.0 °F 52.0 °F 100% 30.07 in 0.8 mi Calm Calm - N/A   Mist
8:46 AM 53.6 °F 53.6 °F 100% 30.07 in 1.2 mi Calm Calm - N/A   Overcast
8:48 AM 53.6 °F 53.6 °F 100% 30.07 in 2.0 mi Calm Calm - N/A   Mostly Cloudy
8:51 AM 54.0 °F 54.0 °F 100% 30.08 in 6.0 mi Calm Calm - N/A   Mostly Cloudy
9:03 AM 54.0 °F 54.0 °F 100% 30.07 in 10.0 mi Calm Calm - N/A   Scattered Clouds
9:51 AM 61.0 °F 55.9 °F 83% 30.08 in 10.0 mi Variable 3.5 mph - N/A   Clear
10:51 AM 68.0 °F 57.0 °F 68% 30.07 in 10.0 mi Calm Calm - N/A   Clear
11:51 AM 73.9 °F 55.9 °F 53% 30.06 in 10.0 mi Calm Calm - N/A   Clear
12:51 PM 75.9 °F 54.0 °F 46% 30.06 in 10.0 mi SE 8.1 mph - N/A   Clear
1:51 PM 78.1 °F 57.0 °F 48% 30.05 in 10.0 mi South 9.2 mph - N/A   Clear
2:51 PM 75.9 °F 57.0 °F 52% 30.06 in 10.0 mi SSW 6.9 mph - N/A   Clear
3:51 PM 78.1 °F 57.0 °F 48% 30.05 in 10.0 mi SSE 5.8 mph - N/A   Clear
4:51 PM 78.8 °F 57.2 °F 47% 30.05 in 10.0 mi North - - N/A   Clear
5:51 PM 78.8 °F 55.4 °F 44% 30.06 in 10.0 mi Calm Calm - N/A   Clear
6:51 PM 73.0 °F 61.0 °F 66% 30.05 in 10.0 mi South 4.6 mph - N/A   Clear
7:51 PM 66.0 °F 60.1 °F 81% 30.07 in 10.0 mi SSE 3.5 mph - N/A   Scattered Clouds
8:51 PM 66.9 °F 59.0 °F 76% 30.08 in 10.0 mi SSE 5.8 mph - N/A   Scattered Clouds
9:51 PM 66.9 °F 57.9 °F 73% 30.09 in 10.0 mi SSE 4.6 mph - N/A   Clear
10:51 PM 62.6 °F 57.2 °F 82% 30.10 in 10.0 mi Calm Calm - N/A   Clear
11:51 PM 62.1 °F 57.9 °F 86% 30.09 in 10.0 mi Calm Calm - N/A   Mostly Cloudy